CW5920 Weather Reports


Display with metric or nautical units.
time (UTC)temp
F
wind
direction
speed
MPH
gust
MPH
rain 1hr
in
rain 24hr
in
rain mn
in
humidity
%
barometer
mb
20200125055516 43 89 4.0 7.0 0.00 0.00 0.00 69 1019.8
20200125054516 43 107 3.0 6.0 0.00 0.00 0.00 69 1019.7
20200125053516 44 107 3.0 4.0 0.00 0.00 0.00 69 1019.7
20200125052516 44 108 3.0 6.0 0.00 0.00 0.00 68 1019.5
20200125051516 44 100 3.0 6.0 0.00 0.00 0.00 67 1019.5
20200125050516 45 104 4.0 7.0 0.00 0.00 0.00 66 1019.3
20200125045516 45 114 4.0 7.0 0.00 0.00 0.00 66 1019.4
20200125044516 45 117 4.0 7.0 0.00 0.00 0.00 67 1019.4
20200125043518 45 121 4.0 9.0 0.00 0.00 0.00 66 1019.3
20200125042516 45 118 3.0 5.0 0.00 0.00 0.00 65 1019.3
20200125041516 45 118 4.0 5.0 0.00 0.00 0.00 65 1019.1
20200125040518 45 118 4.0 5.0 0.00 0.00 0.00 65 1019.0
20200125035516 45 118 4.0 7.0 0.00 0.00 0.00 65 1019.1
20200125034516 45 118 4.0 7.0 0.00 0.00 0.00 65 1018.9
20200125033516 45 118 4.0 5.0 0.00 0.00 0.00 65 1018.8
20200125032516 45 118 4.0 5.0 0.00 0.00 0.00 64 1018.8
20200125031516 46 118 4.0 5.0 0.00 0.00 0.00 64 1018.7
20200125030516 46 118 3.0 4.0 0.00 0.00 0.00 63 1018.7
20200125025516 46 118 3.0 4.0 0.00 0.00 0.00 62 1018.6
20200125024516 46 118 3.0 4.0 0.00 0.00 0.00 62 1018.5
20200125023516 46 118 3.0 4.0 0.00 0.00 0.00 62 1018.5
20200125022516 47 118 3.0 4.0 0.00 0.00 0.00 62 1018.5
20200125021516 47 118 3.0 5.0 0.00 0.00 0.00 62 1018.4
20200125020516 47 118 3.0 4.0 0.00 0.00 0.00 60 1018.3
20200125015516 48 118 3.0 4.0 0.00 0.00 0.00 60 1018.3
20200125014516 48 118 3.0 5.0 0.00 0.00 0.00 59 1018.2
20200125013516 48 118 2.0 4.0 0.00 0.00 0.00 57 1018.2
20200125012516 49 118 2.0 4.0 0.00 0.00 0.00 57 1018.2
20200125011516 50 118 3.0 4.0 0.00 0.00 0.00 55 1018.2
20200125010516 51 118 2.0 3.0 0.00 0.00 0.00 52 1018.2
20200125005516 52 118 2.0 3.0 0.00 0.00 0.00 51 1018.2
20200125004516 53 0.0 0.0 0.00 0.00 0.00 49 1018.1
20200125003516 54 0.0 0.0 0.00 0.00 0.00 44 1018.2
20200125002515 55 0.0 0.0 0.00 0.00 0.00 42 1018.1
20200125001516 57 0.0 0.0 0.00 0.00 0.00 40 1018.1
20200125000516 58 0.0 0.0 0.00 0.00 0.00 40 1018.2
20200124235516 58 0.0 0.0 0.00 0.00 0.00 37 1018.3
20200124234515 59 234 0.0 3.0 0.00 0.00 0.00 37 1018.3
20200124233516 58 233 0.0 2.0 0.00 0.00 0.00 37 1018.4
20200124232515 59 234 0.0 3.0 0.00 0.00 0.00 38 1018.4
20200124231516 60 232 1.0 4.0 0.00 0.00 0.00 37 1018.4
20200124230516 60 241 1.0 6.0 0.00 0.00 0.00 36 1018.4
20200124225516 60 252 1.0 5.0 0.00 0.00 0.00 37 1018.3
20200124224516 61 257 0.0 5.0 0.00 0.00 0.00 36 1018.4
20200124223516 61 289 2.0 7.0 0.00 0.00 0.00 36 1018.3
20200124222516 61 263 2.0 7.0 0.00 0.00 0.00 36 1018.5
20200124221516 61 295 2.0 7.0 0.00 0.00 0.00 36 1018.5
20200124220516 61 244 0.0 5.0 0.00 0.00 0.00 37 1018.7
20200124215516 61 268 2.0 9.0 0.00 0.00 0.00 36 1018.7
20200124214516 61 290 2.0 10.0 0.00 0.00 0.00 38 1018.7
20200124213516 61 308 6.0 10.0 0.00 0.00 0.00 37 1018.7
20200124212516 61 281 2.0 7.0 0.00 0.00 0.00 37 1018.7
20200124211516 60 255 3.0 10.0 0.00 0.00 0.00 36 1018.8
20200124210516 61 290 4.0 12.0 0.00 0.00 0.00 38 1018.9
20200124205515 61 264 2.0 11.0 0.00 0.00 0.00 38 1019.0
20200124204515 60 301 6.0 13.0 0.00 0.00 0.00 37 1019.1
20200124203516 60 315 5.0 12.0 0.00 0.00 0.00 37 1019.1
20200124202516 60 311 5.0 12.0 0.00 0.00 0.00 38 1019.2
20200124201516 60 296 5.0 11.0 0.00 0.00 0.00 39 1019.2
20200124200516 60 292 5.0 13.0 0.00 0.00 0.00 39 1019.3
20200124195515 59 310 4.0 12.0 0.00 0.00 0.00 39 1019.5
20200124194516 59 309 5.0 13.0 0.00 0.00 0.00 40 1019.8
20200124193516 59 285 3.0 13.0 0.00 0.00 0.00 41 1020.0
20200124192516 59 287 7.0 14.0 0.00 0.00 0.00 39 1020.2
20200124191516 59 309 5.0 11.0 0.00 0.00 0.00 42 1020.3
20200124190516 58 290 4.0 13.0 0.00 0.00 0.00 44 1020.5
20200124185516 58 301 5.0 12.0 0.00 0.01 0.00 45 1020.7
20200124184516 57 286 3.0 12.0 0.00 0.01 0.00 45 1020.7
20200124183515 56 322 6.0 11.0 0.00 0.01 0.00 47 1020.9
20200124182516 56 311 6.0 11.0 0.00 0.01 0.00 46 1021.2
20200124181515 56 322 6.0 13.0 0.00 0.01 0.00 47 1021.4
20200124180516 55 336 8.0 13.0 0.00 0.01 0.00 47 1021.5
20200124175515 55 302 7.0 14.0 0.00 0.01 0.00 46 1021.8
20200124174515 55 329 5.0 11.0 0.00 0.01 0.00 49 1022.0
20200124173515 55 339 7.0 12.0 0.00 0.01 0.00 50 1022.1
20200124172516 55 320 5.0 11.0 0.00 0.01 0.00 52 1022.1
20200124171516 54 324 8.0 14.0 0.00 0.01 0.00 51 1022.1
20200124170517 54 316 5.0 12.0 0.00 0.01 0.00 51 1022.1
20200124165516 53 330 8.0 13.0 0.00 0.01 0.00 51 1022.1
20200124164515 52 318 7.0 12.0 0.00 0.01 0.00 53 1022.2
20200124163515 52 299 7.0 13.0 0.00 0.01 0.00 54 1022.1
20200124162515 51 300 6.0 12.0 0.00 0.01 0.00 56 1022.2
20200124161516 51 326 6.0 13.0 0.00 0.01 0.00 59 1022.1
20200124160516 49 294 4.0 9.0 0.00 0.01 0.00 65 1022.0
20200124155516 48 291 2.0 5.0 0.00 0.01 0.00 67 1021.9
20200124154515 46 307 2.0 7.0 0.00 0.01 0.00 70 1021.8
20200124153515 45 281 2.0 4.0 0.00 0.01 0.00 73 1021.8
20200124152516 44 287 2.0 7.0 0.00 0.01 0.00 75 1021.7
20200124151515 43 260 2.0 6.0 0.00 0.01 0.00 79 1021.6
20200124150516 41 260 1.0 4.0 0.00 0.01 0.00 80 1021.5
20200124145515 40 253 2.0 5.0 0.00 0.01 0.00 81 1021.4
20200124144516 39 244 1.0 4.0 0.00 0.01 0.00 82 1021.4
20200124143515 38 238 1.0 4.0 0.00 0.01 0.00 83 1021.1
20200124142515 37 238 1.0 4.0 0.00 0.01 0.00 83 1021.0
20200124141515 37 240 1.0 4.0 0.00 0.01 0.00 82 1021.0
20200124140516 37 245 1.0 4.0 0.00 0.01 0.00 82 1020.9
20200124135515 36 245 0.0 3.0 0.00 0.01 0.00 81 1020.7
20200124134515 37 245 1.0 4.0 0.00 0.01 0.00 81 1020.6
20200124133516 37 248 1.0 4.0 0.00 0.01 0.00 80 1020.7
20200124132515 37 248 2.0 5.0 0.00 0.01 0.00 80 1020.6
20200124131516 37 239 1.0 4.0 0.00 0.01 0.00 80 1020.5
20200124130516 37 237 1.0 5.0 0.00 0.01 0.00 80 1020.4
20200124125515 38 234 1.0 5.0 0.00 0.01 0.00 80 1020.2
20200124124516 38 242 1.0 4.0 0.00 0.01 0.00 79 1020.0
20200124123516 38 239 2.0 5.0 0.00 0.01 0.00 78 1020.0
20200124122515 39 247 2.0 4.0 0.00 0.01 0.00 78 1019.9
20200124121515 39 250 1.0 4.0 0.00 0.01 0.00 77 1020.0
20200124120515 40 288 1.0 3.0 0.00 0.01 0.00 75 1019.9
20200124115515 40 292 2.0 8.0 0.00 0.01 0.00 75 1019.9
20200124114516 40 300 4.0 8.0 0.00 0.01 0.00 74 1019.7
20200124113515 41 304 3.0 9.0 0.00 0.01 0.00 74 1019.7
20200124112515 41 305 4.0 9.0 0.00 0.01 0.00 74 1019.6
20200124111515 41 305 4.0 8.0 0.00 0.01 0.00 74 1019.4
20200124110516 42 308 4.0 9.0 0.00 0.01 0.00 74 1019.3
20200124105516 41 316 3.0 9.0 0.00 0.01 0.00 75 1019.2
20200124104515 41 306 3.0 7.0 0.00 0.01 0.00 75 1019.2
20200124103515 42 299 3.0 6.0 0.00 0.01 0.00 75 1019.1
20200124102516 42 293 3.0 8.0 0.00 0.01 0.00 77 1019.0
20200124101515 41 320 5.0 10.0 0.00 0.01 0.00 79 1018.7
20200124100515 41 326 6.0 11.0 0.00 0.01 0.00 80 1018.8
20200124095516 40 298 2.0 4.0 0.00 0.01 0.00 80 1019.1
20200124094515 40 295 1.0 5.0 0.00 0.01 0.00 80 1019.2
20200124093515 40 294 3.0 8.0 0.00 0.01 0.00 80 1019.0
20200124092515 40 289 2.0 6.0 0.00 0.01 0.00 80 1019.0
20200124090515 40 242 0.0 3.0 0.00 0.01 0.00 79 1018.7
20200124085515 40 241 0.0 4.0 0.00 0.01 0.00 79 1018.6
20200124084515 40 239 1.0 5.0 0.00 0.01 0.00 79 1018.7
20200124083515 40 237 1.0 5.0 0.00 0.01 0.00 79 1018.6
20200124082515 40 241 1.0 5.0 0.00 0.01 0.00 79 1018.5
20200124081515 40 241 2.0 5.0 0.00 0.01 0.00 79 1018.4
20200124080515 40 247 1.0 5.0 0.00 0.02 0.00 79 1018.5
20200124075515 40 251 0.0 3.0 0.00 0.02 0.00 79 1018.3
20200124074515 40 251 1.0 4.0 0.00 0.02 0.00 79 1018.3
20200124073515 41 250 2.0 4.0 0.00 0.02 0.00 79 1018.2
20200124072517 41 251 1.0 3.0 0.00 0.02 0.00 78 1018.1
20200124071515 41 251 1.0 4.0 0.00 0.02 0.00 78 1018.1
20200124070515 41 251 1.0 3.0 0.00 0.02 0.00 78 1018.1
20200124065515 41 252 1.0 6.0 0.00 0.02 0.00 77 1018.1
20200124064517 42 233 1.0 3.0 0.00 0.02 0.00 76 1018.0
20200124063515 42 234 1.0 3.0 0.00 0.02 0.00 75 1018.1
20200124062515 42 236 1.0 4.0 0.00 0.02 0.00 75 1018.1
20200124061515 43 236 0.0 2.0 0.00 0.02 0.00 74 1018.2
20200124060515 43 236 1.0 3.0 0.00 0.02 0.00 74 1018.3